Location: ???????
(55.3754°N, 39.3545°E)
Time: 11:06:41
(UTC+00:00)

PSLV R/B - Pass Details

Date: 14 April 2026
Orbit: 584 x 680 km, 97.9° (Epoch: 10 May)

Event Time Altitude Azimuth Distance (km) Brightness Sun altitude
Rises 21:55:13 0° 10° (N) 2,872 8.4 -24.6°
Reaches altitude 10° 21:57:32 10° 2° (N) 1,951 7.2 -24.6°
Maximum altitude 22:01:24 36° 296° (WNW) 942 4.5 -24.5°
Enters shadow 22:01:38 36° 288° (WNW) 947 4.5 -24.4°
